Location: El Mouella
(16.4949°N, 9.1594°W)
Time: 17:24:36
(UTC+00:00)

Cosmos 1833 Rocket - Pass Details

Date: 02 June 2020
Orbit: 833 x 839 km, 71.0° (Epoch: 05 July)

Event Time Altitude Azimuth Distance (km) Brightness Sun altitude
Rises 21:18:42 0° 346° (NNW) 3,374 6.6 -28.3°
Reaches altitude 10° 21:21:08 10° 348° (NNW) 2,441 5.7 -28.7°
Enters shadow 21:25:46 60° 10° (N) 947 2.9 -29.6°
